This demonstration page uses our WeatherBlox Daily Observations layout. Learn more.

Left ArrowRight Arrow

36.19886, -115.1175

Hourly Observations for April 25, 2021

Temp ( °F °C ) Dew Point ( °F °C ) Humidity (%) Winds ( mph kmh ) Pressure ( in mb ) Visibility ( mi km ) Precip ( " mm )
12:53 am 00:53 Clear 70 21.1 31 -0.6 23 23 SSE 15 24 29.64 1004 10 16 N/A
1:53 am 01:53 Clear 69 20.6 31 -0.6 24 24 SSE 23 37 29.62 1003 10 16 N/A
2:53 am 02:53 Clear 68 20 30 -1.1 24 24 SSE 24 39 29.61 1003 10 16 N/A
3:53 am 03:53 Clear 67 19.4 30 -1.1 25 25 S 23 37 29.60 1002 10 16 N/A
4:53 am 04:53 Clear 66 18.9 32 undefined 28 28 S 28 44 29.60 1002 10 16 N/A
5:53 am 05:53 Clear 66 18.9 28 -2.2 24 24 SSE 25 41 29.61 1003 10 16 N/A
6:53 am 06:53 Sunny 67 19.4 25 -3.9 20 20 S 20 31 29.63 1004 10 16 N/A
7:53 am 07:53 Sunny 68 20 23 -5 18 18 S 21 33 29.67 1005 10 16 N/A
8:53 am 08:53 Sunny 71 21.7 21 -6.1 15 15 S 17 28 29.68 1005 10 16 N/A
9:53 am 09:53 Sunny 75 23.9 19 -7.2 12 12 SSW 24 39 29.67 1005 10 16 N/A
10:53 am 10:53 Sunny 77 25 18 -7.8 11 11 S 24 39 29.67 1005 10 16 N/A
11:53 am 11:53 Sunny 79 26.1 13 -10.6 8 8 SSW 22 35 29.65 1004 10 16 N/A
12:53 pm 12:53 Sunny 79 26.1 16 -8.9 9 9 SSW 23 37 29.64 1004 10 16 N/A
1:53 pm 13:53 Sunny 80 26.7 17 -8.3 9 9 SW 20 31 29.62 1003 10 16 N/A
2:53 pm 14:53 Sunny 80 26.7 16 -8.9 9 9 S 23 37 29.61 1003 10 16 N/A
3:53 pm 15:53 Sunny 78 25.6 14 -10 9 9 SW 24 39 29.59 1002 10 16 N/A
4:53 pm 16:53 Sunny 77 25 16 -8.9 10 10 WSW 18 30 29.57 1002 10 16 N/A
5:53 pm 17:53 Sunny 76 24.4 23 -5 14 14 WSW 22 35 29.55 1001 10 16 N/A
6:53 pm 18:53 Sunny 75 23.9 23 -5 14 14 SW 12 19 29.54 1000 10 16 N/A
7:53 pm 19:53 Clear 73 22.8 24 -4.4 16 16 SW 15 24 29.54 1000 10 16 N/A
8:53 pm 20:53 Clear 71 21.7 22 -5.6 16 16 WSW 10 17 29.56 1001 10 16 N/A
9:53 pm 21:53 Clear 70 21.1 25 -3.9 18 18 SW 5 7 29.59 1002 10 16 N/A
10:53 pm 22:53 Clear 67 19.4 28 -2.2 23 23 SW 12 19 29.59 1002 10 16 N/A
11:53 pm 23:53 Clear 66 18.9 31 -0.6 27 27 S 17 28 29.60 1002 10 16 N/A

Powered by AerisWeather